Location: Hawks Ness
(60.2333°N, 1.1667°W)
Time: 13:23:39
(UTC+00:00)

CENTAUR R/B - Pass Details

Date: 22 October 2019
Orbit: 779 x 1409 km, 63.4° (Epoch: 19 November)

Event Time Altitude Azimuth Distance (km) Brightness Sun altitude
Exits shadow 03:56:29 39° 240° (WSW) 1,869 3.4 -23.3°
Maximum altitude 03:56:46 39° 235° (SW) 1,871 3.4 -23.2°
Drops below altitude 10° 04:04:29 10° 171° (S) 3,465 5.3 -22.3°
Sets 04:07:40 0° 164° (SSE) 4,462 5.9 -21.9°
